Location: Maccacari
(45.1333°N, 11.1333°E)
Time: 14:21:40
(UTC+00:00)

S-56A Canister/Altair - Pass Details

Date: 30 January 2021
Orbit: 631 x 2501 km, 38.9° (Epoch: 01 March)

Event Time Altitude Azimuth Distance (km) Brightness Sun altitude
Rises 03:55:23 0° 267° (W) 2,937 - -28.7°
Reaches altitude 10° 03:57:59 10° 253° (WSW) 2,005 - -28.3°
Maximum altitude 04:01:34 24° 198° (SSW) 1,347 - -27.7°
Exits shadow 04:03:03 21° 170° (S) 1,524 9.1 -27.4°
Drops below altitude 10° 04:05:30 10° 145° (SE) 2,221 10.3 -27.0°
Sets 04:08:34 0° 132° (SE) 3,340 11.5 -26.4°
